Location: Street
(51.1247°N, 2.7429°W)
Time: 03:34:10
(UTC+00:00)

Transit 2A Rocket - Pass Details

Date: 27 November 2020
Orbit: 592 x 911 km, 66.7° (Epoch: 16 January)

Event Time Altitude Azimuth Distance (km) Brightness Sun altitude
Exits shadow 05:02:19 25° 349° (N) 1,588 6.5 -25.1°
Drops below altitude 10° 05:05:41 10° 27° (NNE) 2,331 7.7 -24.6°
Sets 05:08:21 0° 39° (NE) 3,202 8.7 -24.1°
